{"data":{"norad_id":59156,"epoch":"2026-05-25T03:07:09.446016Z","epoch_age_seconds":66997,"freshness":"FRESH","line1":"1 59156U 24044E   26145.12997044  .00000484  00000+0  27113-4 0  9997","line2":"2 59156  42.9992  38.9923 0000680 244.3392 115.7389 15.27582598125215","mean_motion":15.27582598,"eccentricity":6.8e-5,"inclination_deg":42.9992,"raan_deg":38.9923,"arg_perigee_deg":244.3392,"mean_anomaly_deg":115.7389,"bstar":2.7113e-5,"rev_number":12521,"period_min":94.266588391707,"perigee_km":482.57475657852,"apogee_km":483.50787682959,"semimajor_km":6861.1783167041,"source":"CELESTRAK","updated_at":"2026-05-25T13:38:18.833157Z"}}